Home > Weather > Cheltenham > Past weeks

Flag for United Kingdom Past Weather in Cheltenham, England, United Kingdom — Yesterday and Last 2 Weeks

Now
64 °F

Passing clouds.


Feels Like: 64 °F
Forecast: 47 / 67 °F
Wind: 8 mph from Northeast

Location: Staverton Private

Current Time: May 29, 2016 at 12:48:49 PM

Latest Report: May 29, 2016 at 12:20 PM


Visibility: N/A

Pressure: 29.95 "Hg

Humidity: 56%

Dew Point: 48 °F

Location of CheltenhamLocation

Past Weather in Cheltenham — Graph

°F

Cheltenham Temperature Yesterday

Maximum temperature yesterday: 68 °F (at 4:50 PM)
Minimum temperature yesterday: 57 °F (at 8:20 AM)
Average temperature yesterday: 64 °F

High & Low Weather Summary for the Past Weeks

 TemperatureHumidityPressure
High68 °F (May 27, 4:20 PM)94% (May 17, 7:50 AM)30.21 "Hg (May 17, 7:50 AM)
Low45 °F (May 16, 6:50 AM)40% (May 16, 5:50 PM)29.59 "Hg (May 18, 8:20 AM)
Average59 °F67%29.98 "Hg
* Reported May 14 11:20 AM — May 29 11:20 AM, Cheltenham, Weather by CustomWeather, © 2016

Note: Actual official high and low records may vary slightly from our data, if they occured in-between our weather recording intervals... More about our weather records

Advertising

Cheltenham Weather History for the Previous 24 Hours

Scroll right to see more
 ConditionsComfort  
Time TempWeatherWind HumidityBarometerVisibility
11:20 AM
Sun, May 29
61 °FPassing clouds.6 mph63%29.95 "Hg5 mi
10:50 AM59 °FPassing clouds.8 mph68%29.95 "Hg5 mi
10:20 AM57 °FPassing clouds.8 mph77%29.95 "Hg5 mi
9:50 AM55 °FPassing clouds.12 mph77%29.98 "Hg5 mi
9:20 AM55 °FPassing clouds.8 mph77%29.95 "Hg5 mi
8:50 AM55 °FPassing clouds.10 mph77%29.95 "Hg5 mi
7:20 PM
Sat, May 28
66 °FPassing clouds.9 mph60%29.92 "HgN/A
6:50 PM68 °FPassing clouds.9 mph56%29.92 "HgN/A
5:50 PM68 °FScattered clouds.9 mph56%29.92 "HgN/A
5:20 PM68 °FSprinkles. Scattered clouds.8 mph60%29.92 "HgN/A
4:50 PM68 °FScattered clouds.8 mph56%29.92 "HgN/A
4:20 PM66 °FScattered clouds.6 mph60%29.95 "HgN/A
3:50 PM66 °FScattered clouds.5 mph60%29.95 "HgN/A
3:20 PM66 °FScattered clouds.5 mph60%29.95 "HgN/A
2:50 PM66 °FScattered clouds.6 mph60%29.95 "HgN/A
2:20 PM66 °FScattered clouds.6 mph60%29.98 "HgN/A
1:50 PM66 °FScattered clouds.5 mph60%29.98 "HgN/A
1:20 PM66 °FScattered clouds.5 mph60%29.98 "HgN/A
12:50 PM66 °FScattered clouds.7 mph60%29.98 "Hg6 mi
12:20 PM66 °FPassing clouds.7 mph60%29.98 "Hg6 mi
Weather by CustomWeather, © 2016

See weather overviewHow to use our weather pages